Wind_Speed
41 42 43 45 46 47 45 42 42 38 33 27 29 29 26 21 18 19 17 10 10 13 10 9 12 4 8 6 8 11 11 16 13 12 12 15 17 18 21 26 28 32 34
44 45 46 46 46 47 48 46 43 40 41 35 27 28 28 23 22 22 19 15 11 15 10 10 7 6 10 8 8 11 13 11 11 11 10 12 13 16 17 21 22 25 29
43 46 48 49 51 51 51 52 50 48 41 40 38 28 25 22 25 24 23 17 15 15 11 9 5 8 10 10 9 12 9 9 10 6 9 10 8 10 13 17 19 19 21
44 44 45 48 51 53 54 56 58 55 46 40 40 37 30 27 30 27 24 21 18 14 14 10 10 6 8 12 14 13 12 8 10 3 7 8 6 7 10 14 15 14 17
43 42 43 38 38 45 52 58 60 61 58 50 41 37 34 30 32 30 26 23 21 17 16 12 10 7 7 11 15 14 15 14 12 6 2 6 7 6 8 12 13 12 10
38 32 22 21 26 30 32 36 40 46 48 43 37 34 31 32 34 33 30 27 25 19 14 15 10 10 10 13 16 16 16 12 14 12 6 6 6 8 7 8 16 12 10
27 18 17 21 22 27 27 25 25 26 34 40 37 33 33 36 36 33 35 23 25 24 16 16 8 12 11 15 18 18 17 14 13 16 13 8 9 8 10 5 14 15 14
21 17 17 18 18 14 16 19 21 20 20 26 30 34 35 37 39 35 37 34 27 24 20 19 13 13 12 12 17 21 20 18 15 16 16 11 9 7 9 11 14 15 15
21 22 20 20 21 19 17 11 12 16 17 22 25 29 36 38 38 38 37 35 33 27 22 21 18 15 14 14 17 22 22 20 18 20 18 14 11 9 8 9 15 17 15
20 25 25 27 28 17 23 18 11 13 17 18 19 27 35 39 40 39 38 34 31 28 23 25 21 16 14 14 15 18 22 22 23 22 20 19 14 12 12 14 15 14 15
23 24 26 27 26 18 18 22 19 12 14 17 19 24 30 38 40 39 36 34 34 24 25 25 23 19 15 13 14 18 21 24 25 25 22 20 17 17 15 14 15 14 13
20 24 26 26 17 12 14 17 25 19 20 24 25 24 21 29 36 41 35 38 32 32 30 28 22 20 20 14 16 17 20 23 26 28 25 23 23 20 18 18 18 16 17
18 19 17 17 13 9 11 16 26 29 28 33 33 29 31 33 31 37 37 40 39 39 32 29 25 21 21 18 16 18 19 21 26 27 28 28 25 22 21 21 21 20 16
19 17 11 10 9 8 8 13 26 35 36 41 38 36 36 32 34 37 36 33 36 39 32 33 29 22 21 21 20 20 21 21 25 28 27 25 26 26 26 24 22 20 15
18 16 12 7 5 6 5 6 17 36 41 43 43 42 35 31 40 41 36 36 36 37 35 33 29 26 22 23 24 19 23 23 25 25 28 26 26 27 28 26 22 20 16
9 11 10 8 6 7 8 7 8 27 41 49 49 45 45 39 43 44 40 34 38 37 37 33 32 27 26 23 22 24 22 22 20 21 22 27 27 26 24 22 19 14 14
6 6 10 11 9 10 12 12 18 19 39 54 54 49 50 47 46 51 45 39 36 36 35 36 35 31 26 25 28 25 23 23 20 22 21 19 20 20 18 16 12 10 15
6 8 7 12 15 16 16 20 28 24 36 56 54 52 52 52 51 50 44 45 40 38 38 37 34 31 29 29 26 27 24 21 20 24 23 20 17 16 15 13 15 16 15
9 11 14 19 22 25 25 25 24 25 31 55 61 57 58 56 54 51 46 48 42 41 41 41 39 31 32 31 28 28 27 24 22 19 20 19 16 18 19 18 15 17 18
12 16 19 21 25 27 29 31 24 21 26 45 57 60 63 60 57 53 49 47 36 38 41 37 35 31 32 30 30 26 28 27 22 21 19 21 21 21 24 23 21 20 17
15 18 20 20 23 27 31 27 24 20 20 30 53 62 65 64 61 55 48 52 35 32 38 34 33 32 31 29 30 32 31 31 28 24 19 17 19 21 22 19 20 18 18
16 18 21 24 26 24 22 23 20 18 20 24 43 58 61 69 63 63 54 53 44 35 34 31 35 32 30 26 28 30 31 31 31 27 23 20 19 22 22 21 21 22 22
15 15 17 22 22 19 19 21 22 23 24 23 31 50 62 67 66 68 55 52 47 40 38 38 35 36 32 27 29 30 32 31 29 29 25 24 21 21 23 22 22 23 26
10 16 19 22 23 18 17 17 19 20 22 20 25 44 52 64 71 63 61 55 52 42 37 39 39 35 29 27 29 30 33 32 32 29 26 21 20 23 24 23 24 26 27
10 23 27 25 27 23 19 22 13 13 13 18 23 30 46 53 66 65 62 56 54 46 43 41 39 41 34 31 31 31 31 34 36 32 26 27 27 24 27 28 28 28 26
13 23 34 32 27 20 21 21 9 5 13 13 20 29 38 47 60 66 63 54 53 43 44 42 40 35 34 31 28 29 32 30 31 35 34 32 30 30 31 30 31 31 30
Wind_Direction
257 256 253 251 251 252 253 254 259 264 271 268 261 258 263 264 265 257 247 266 277 291 321 345 6 267 193 181 159 155 141 131 105 89 57 30 27 35 40 48 47 55 56
260 259 258 254 254 253 253 251 255 260 262 262 264 260 257 253 255 250 247 256 248 277 314 318 341 320 222 203 181 184 163 144 127 111 51 24 33 43 26 30 39 51 53
267 266 265 263 258 255 255 255 251 261 259 260 256 258 253 237 238 249 244 243 243 258 290 301 311 335 221 208 193 186 176 173 155 92 58 36 41 41 21 32 35 41 39
273 272 269 269 266 260 258 255 255 260 257 260 259 251 244 239 231 238 243 239 234 245 273 287 282 319 237 212 207 194 202 196 184 155 58 25 21 19 21 15 33 39 32
276 278 277 275 268 264 260 257 255 253 255 257 250 247 245 240 225 230 236 233 235 247 255 268 273 296 267 218 213 214 215 222 208 202 352 359 351 333 352 1 16 35 57
278 278 274 278 273 275 276 263 254 248 245 245 244 241 235 237 229 222 227 228 237 239 242 265 239 275 282 224 218 219 220 229 219 211 240 316 335 321 332 358 21 1 29
274 259 268 287 294 285 277 269 262 255 236 235 237 231 219 218 214 216 225 225 228 235 236 245 234 276 265 230 220 221 221 222 224 227 238 281 294 304 328 332 0 359 5
244 248 277 298 300 281 280 271 261 258 225 218 211 213 204 209 209 209 215 215 228 224 224 237 248 260 251 239 224 221 226 230 241 227 246 265 273 278 305 323 332 342 345
246 269 281 299 301 286 266 264 261 243 225 221 221 213 202 203 204 208 210 214 218 217 223 238 243 239 254 245 224 224 230 233 239 242 251 251 259 271 295 299 322 337 349
257 261 275 288 295 273 250 238 238 233 223 219 214 202 200 202 207 213 212 215 222 217 228 233 232 238 238 228 226 228 234 235 240 247 254 257 262 265 285 278 314 321 327
274 278 282 290 290 262 239 231 212 213 216 201 199 196 201 205 207 210 214 213 223 219 230 234 232 234 230 224 224 230 238 235 238 244 251 258 262 265 284 285 305 322 324
286 286 285 286 277 264 225 222 204 197 177 186 198 189 211 225 214 213 209 211 214 220 229 233 228 228 231 234 229 232 237 240 239 242 246 252 262 268 278 292 294 312 317
300 298 279 276 263 250 213 215 199 187 190 184 199 194 223 217 222 219 221 219 209 218 225 229 226 236 230 232 237 243 242 241 239 239 246 251 262 270 274 290 292 299 308
294 297 284 278 271 259 219 210 206 191 190 193 203 208 200 213 219 225 224 217 217 217 220 222 233 238 237 238 244 243 246 247 246 244 247 252 255 260 267 278 292 294 298
286 290 291 270 272 262 245 249 220 201 195 202 203 203 203 208 216 217 216 224 223 218 217 220 231 235 240 247 246 247 248 247 249 251 249 254 257 261 268 278 278 288 293
286 274 268 247 247 275 279 280 256 223 207 207 204 204 203 207 210 208 215 218 226 220 217 213 229 236 237 240 250 247 248 247 254 254 251 251 252 258 268 278 276 282 294
308 279 256 248 255 264 261 263 279 243 220 205 204 205 204 207 206 208 211 212 215 215 219 210 217 229 245 247 250 253 244 241 250 242 248 248 250 257 264 274 251 236 275
296 302 258 259 274 282 270 258 279 261 224 209 207 205 206 203 204 202 205 215 211 207 213 222 221 233 240 246 249 255 253 243 243 248 243 238 245 256 259 254 242 229 238
344 318 279 272 277 281 283 288 276 264 227 216 207 206 207 208 207 204 205 214 214 209 207 216 225 234 242 241 246 252 255 238 244 243 236 227 226 250 250 241 235 237 244
331 319 305 285 279 282 285 291 287 266 239 213 219 207 204 206 206 206 208 215 217 214 215 219 223 234 237 239 244 251 250 235 234 230 228 216 224 248 251 252 250 246 252
316 318 315 313 304 294 289 284 279 260 250 226 213 214 207 204 210 205 210 217 219 214 216 217 229 231 232 239 248 246 245 230 230 227 229 230 231 242 249 253 252 258 266
320 317 324 324 314 302 295 288 279 270 252 236 217 211 207 205 206 211 205 214 215 215 214 223 229 234 237 242 249 249 244 235 233 226 229 238 242 253 251 248 259 259 266
325 335 332 341 329 312 296 288 286 269 252 240 220 211 211 207 204 211 204 212 209 213 211 218 220 233 232 241 253 250 238 235 234 230 229 236 250 254 248 251 256 261 268
322 346 354 354 350 324 305 310 280 270 253 224 217 212 210 212 209 209 208 206 210 211 208 225 225 229 231 237 250 246 235 233 227 231 235 236 252 257 246 257 260 266 270
354 359 3 358 348 340 332 327 298 261 225 209 209 211 209 212 212 205 204 204 208 210 215 219 226 226 233 240 244 243 238 232 231 232 239 246 251 254 252 260 256 260 259
13 5 356 357 357 340 343 346 338 258 196 181 194 204 207 207 209 206 211 208 207 211 215 221 225 227 233 236 242 247 246 244 245 245 243 248 251 250 254 258 258 259 269
Height
10967 10965 10964 10964 10966 10965 10965 10967 10967 10969 10971 10973 10976 10981 10983 10985 10986 10989 10989 10990 10991 10992 10992 10994 10993 10993 10994 10994 10994 10994 10993 10991 10990 10989 10988 10986 10985 10983 10981 10979 10976 10972 10969
10959 10958 10957 10956 10956 10957 10959 10960 10962 10965 10966 10966 10970 10975 10978 10981 10983 10986 10987 10989 10989 10989 10991 10992 10993 10992 10993 10993 10993 10994 10994 10992 10991 10990 10989 10989 10987 10984 10982 10981 10978 10976 10973
10952 10950 10949 10948 10947 10948 10950 10950 10953 10956 10959 10960 10964 10969 10973 10976 10979 10982 10983 10985 10987 10988 10990 10992 10993 10992 10992 10991 10992 10993 10993 10993 10993 10991 10990 10989 10988 10986 10984 10983 10981 10978 10975
10941 10940 10939 10937 10936 10937 10939 10941 10943 10946 10949 10951 10954 10960 10966 10970 10975 10977 10980 10982 10984 10986 10987 10989 10990 10991 10990 10990 10991 10992 10993 10993 10992 10992 10990 10989 10989 10987 10985 10984 10982 10979 10977
10933 10932 10929 10927 10926 10926 10925 10926 10929 10933 10939 10943 10947 10951 10957 10964 10968 10973 10976 10980 10980 10983 10985 10987 10987 10988 10988 10988 10989 10990 10991 10992 10992 10991 10991 10990 10989 10988 10986 10985 10983 10980 10978
10925 10923 10921 10919 10917 10915 10915 10914 10916 10920 10927 10932 10937 10942 10949 10955 10962 10968 10973 10976 10978 10979 10982 10984 10985 10986 10986 10986 10986 10988 10990 10990 10990 10991 10990 10990 10989 10988 10987 10986 10984 10982 10979
10918 10917 10915 10913 10911 10909 10907 10907 10908 10912 10916 10922 10928 10933 10940 10948 10954 10962 10968 10973 10974 10977 10979 10981 10982 10983 10983 10983 10983 10985 10986 10987 10988 10989 10988 10990 10989 10988 10988 10986 10985 10982 10980
10911 10912 10911 10909 10907 10904 10904 10903 10903 10905 10909 10913 10919 10924 10932 10942 10948 10956 10963 10967 10970 10973 10975 10978 10980 10981 10982 10981 10982 10982 10984 10984 10986 10987 10987 10989 10989 10988 10987 10986 10985 10983 10981
10907 10907 10905 10904 10903 10901 10902 10902 10902 10902 10906 10911 10915 10920 10927 10935 10944 10951 10957 10962 10967 10969 10971 10974 10975 10978 10979 10979 10979 10980 10981 10982 10983 10984 10985 10986 10987 10987 10987 10986 10985 10983 10982
10902 10901 10900 10898 10896 10895 10896 10899 10899 10903 10905 10908 10913 10916 10923 10931 10939 10945 10951 10956 10962 10964 10968 10971 10973 10974 10976 10977 10977 10978 10979 10981 10982 10982 10984 10985 10986 10986 10986 10986 10984 10983 10982
10897 10896 10894 10892 10891 10891 10891 10893 10897 10901 10904 10909 10912 10916 10920 10925 10933 10939 10947 10952 10957 10962 10965 10968 10969 10971 10973 10974 10975 10976 10976 10977 10978 10980 10982 10983 10984 10984 10984 10985 10984 10983 10981
10892 10890 10888 10888 10886 10886 10887 10887 10891 10897 10901 10904 10908 10909 10916 10922 10928 10934 10940 10947 10953 10958 10962 10965 10966 10968 10970 10972 10973 10973 10974 10974 10975 10977 10979 10980 10981 10982 10983 10983 10982 10981 10980
10886 10883 10882 10882 10881 10881 10882 10883 10885 10892 10895 10897 10899 10901 10911 10917 10923 10930 10936 10942 10947 10952 10958 10961 10963 10965 10967 10970 10969 10970 10971 10972 10971 10973 10974 10976 10978 10980 10981 10980 10979 10979 10979
10881 10879 10879 10878 10876 10877 10878 10879 10881 10887 10891 10891 10893 10898 10904 10910 10919 10926 10932 10938 10943 10948 10953 10958 10960 10963 10964 10966 10967 10967 10967 10969 10969 10969 10970 10972 10975 10976 10977 10978 10978 10977 10976
10879 10876 10875 10874 10873 10873 10874 10877 10878 10882 10886 10886 10889 10893 10897 10904 10913 10920 10926 10932 10938 10942 10948 10954 10957 10959 10961 10963 10964 10964 10964 10964 10965 10966 10968 10970 10972 10973 10974 10975 10975 10975 10975
10874 10874 10873 10872 10871 10870 10871 10873 10875 10876 10879 10883 10884 10889 10894 10901 10907 10915 10921 10925 10932 10938 10943 10948 10953 10956 10958 10960 10961 10961 10962 10962 10963 10963 10965 10966 10968 10969 10970 10972 10972 10972 10972
10872 10870 10870 10870 10870 10869 10868 10868 10869 10869 10871 10876 10878 10884 10890 10896 10901 10908 10914 10919 10926 10934 10939 10944 10948 10952 10954 10956 10957 10958 10959 10959 10960 10961 10963 10963 10965 10966 10967 10968 10968 10969 10969
10871 10869 10868 10868 10867 10865 10864 10863 10862 10861 10863 10867 10872 10877 10884 10890 10895 10902 10908 10914 10920 10928 10935 10940 10944 10948 10950 10953 10954 10954 10956 10957 10958 10959 10960 10961 10962 10963 10964 10965 10966 10966 10967
10868 10867 10864 10861 10858 10856 10853 10853 10852 10852 10853 10858 10862 10868 10875 10883 10890 10899 10902 10908 10916 10923 10929 10935 10940 10944 10946 10948 10950 10951 10952 10954 10955 10957 10958 10959 10961 10961 10961 10962 10963 10963 10964
10865 10862 10859 10856 10853 10849 10845 10842 10842 10841 10842 10845 10851 10858 10867 10874 10883 10892 10898 10902 10912 10920 10925 10930 10935 10939 10941 10943 10946 10948 10948 10950 10952 10954 10955 10957 10957 10957 10958 10958 10958 10959 10960
10861 10857 10853 10851 10847 10843 10838 10834 10834 10833 10834 10836 10840 10848 10857 10866 10875 10884 10892 10898 10905 10914 10921 10925 10930 10933 10935 10938 10940 10942 10944 10946 10948 10951 10952 10953 10954 10955 10955 10955 10954 10954 10955
10858 10854 10849 10845 10840 10835 10831 10829 10827 10825 10826 10826 10830 10836 10846 10857 10867 10876 10886 10892 10901 10909 10916 10921 10926 10929 10931 10934 10935 10936 10939 10941 10943 10946 10948 10949 10950 10950 10950 10950 10949 10949 10949
10855 10852 10847 10842 10836 10831 10827 10825 10821 10817 10818 10818 10821 10829 10835 10846 10858 10868 10879 10887 10897 10904 10911 10917 10922 10925 10927 10929 10931 10931 10932 10935 10937 10941 10943 10945 10945 10945 10945 10945 10944 10944 10944
10852 10850 10844 10838 10832 10828 10823 10818 10813 10809 10809 10810 10813 10820 10828 10838 10850 10860 10873 10883 10892 10899 10906 10912 10916 10920 10923 10924 10926 10926 10927 10929 10932 10935 10937 10939 10940 10940 10940 10940 10939 10939 10938
10851 10847 10842 10836 10828 10824 10819 10811 10805 10803 10804 10806 10810 10816 10824 10832 10843 10856 10867 10878 10887 10895 10901 10907 10911 10915 10918 10919 10920 10921 10922 10924 10927 10930 10931 10933 10933 10933 10934 10934 10933 10933 10932
10848 10845 10840 10835 10827 10822 10816 10808 10802 10802 10802 10804 10807 10813 10820 10827 10838 10852 10864 10876 10883 10891 10897 10902 10906 10909 10911 10913 10915 10916 10918 10920 10922 10923 10924 10926 10926 10927 10927 10927 10927 10926 10926